User: anonymous   Login
Location: Columbia
(38.9520°N, 92.3340°W)
Time: 09:01:40
(UTC-05:00)
Language:

Cosmos 1603 - Orbit

View from above orbital plane
View from above orbital plane
View from above satellite
View from above satellite

Ground track
Ground track

The orbit data is extracted from the following two-line orbital elements,

1 15333U 84106A   18172.11302610  .00000000  00000-0  25057-4 0  9990
2 15333  71.0260  39.8424 0019401 359.7823   0.3287 14.14067314740412
Epoch (UTC): 21 June 2018 02:42:45
Eccentricity: 0.0019401
inclination: 71.0260°
perigee height: 831 km
apogee height: 859 km
right ascension of ascending node: 39.8424°
argument of perigee: 359.7823°
revolutions per day: 14.14067314
mean anomaly at epoch: 0.3287°
orbit number at epoch: 74041

The dashed part of the orbit path shows where the satellite is in the earth's shadow,  

DLR